K9JM Weather Reports


time (UTC)temp
C
wind
direction
speed
KPH
gust
KPH
rain 1hr
cm
rain 24hr
cm
rain mn
cm
humidity
%
barometer
mb
20260831124515 18 0.0 3.2 0.00 0.00 0.00 48 1011.7
20260831123016 18 0.0 3.2 0.00 0.00 0.00 49 1011.7
20260831121516 18 0.0 0.0 0.00 0.00 0.00 49 1011.9
20260831120015 18 0.0 0.0 0.00 0.00 0.00 48 1012.0
20260831114516 18 0.0 0.0 0.00 0.00 0.00 47 1011.9
20260831113015 18 0.0 0.0 0.00 0.00 0.00 46 1012.1
20260831111516 18 0.0 0.0 0.00 0.00 0.00 46 1012.2
20260831110016 18 0.0 0.0 0.00 0.00 0.00 47 1012.2
20260831104516 18 0.0 0.0 0.00 0.00 0.00 47 1012.4
20260831103015 18 0.0 0.0 0.00 0.00 0.00 48 1012.4
20260831101515 18 0.0 0.0 0.00 0.00 0.00 47 1012.2
20260831100016 18 0.0 0.0 0.00 0.00 0.00 47 1012.3
20260831094515 18 0.0 0.0 0.00 0.00 0.00 46 1012.3
20260831093015 18 0.0 0.0 0.00 0.00 0.00 47 1012.4
20260831091515 18 0.0 0.0 0.00 0.00 0.00 48 1012.5
20260831090015 18 0.0 0.0 0.00 0.00 0.00 48 1012.6
20260831084515 19 0.0 0.0 0.00 0.00 0.00 47 1012.5
20260831083015 19 0.0 0.0 0.00 0.00 0.00 47 1012.5
20260831081515 19 0.0 1.6 0.00 0.00 0.00 47 1012.6
20260831080015 19 0.0 1.6 0.00 0.00 0.00 47 1012.6
20260831074535 20 0.0 3.2 0.00 0.00 0.00 46 1012.8
20260831073015 20 0.0 0.0 0.00 0.00 0.00 45 1012.8
20260831071517 20 0.0 0.0 0.00 0.00 0.00 46 1012.9
20260831070017 20 0.0 1.6 0.00 0.00 0.00 45 1012.8
20260831064537 20 0.0 1.6 0.00 0.00 0.00 45 1012.8
20260831063016 20 0.0 1.6 0.00 0.00 0.00 45 1012.9
20260831061516 20 0.0 4.8 0.00 0.00 0.00 45 1013.1
20260831060017 21 0.0 1.6 0.00 0.00 0.00 44 1013.1
20260831054536 21 0.0 4.8 0.00 0.00 0.00 44 1013.2
20260831053016 21 0.0 4.8 0.00 0.00 0.00 43 1013.0
20260831051516 21 0.0 4.8 0.00 0.00 0.00 41 1013.2
20260831050016 22 0.0 0.0 0.00 0.00 0.00 40 1013.3
20260831044536 22 0.0 1.6 0.00 0.00 0.00 39 1013.0
20260831043016 22 0.0 0.0 0.00 0.00 0.00 38 1013.2
20260831041516 23 0.0 0.0 0.00 0.00 0.00 38 1013.2
20260831040016 23 0.0 0.0 0.00 0.00 0.00 38 1012.8
20260831034516 23 0.0 0.0 0.00 0.00 0.00 39 1012.8
20260831033016 23 0.0 0.0 0.00 0.00 0.00 40 1012.8
20260831031516 23 0.0 0.0 0.00 0.00 0.00 38 1012.6
20260831030016 24 0.0 0.0 0.00 0.00 0.00 36 1012.5
20260831024516 25 0.0 0.0 0.00 0.00 0.00 33 1012.0
20260831023016 25 0.0 0.0 0.00 0.00 0.00 32 1012.2
20260831021516 26 0.0 0.0 0.00 0.00 0.00 31 1012.0
20260831020016 26 0.0 0.0 0.00 0.00 0.00 30 1012.2
20260831014516 26 0.0 1.6 0.00 0.00 0.00 29 1012.0
20260831013016 27 0.0 1.6 0.00 0.00 0.00 28 1012.2
20260831011536 27 0.0 0.0 0.00 0.00 0.00 28 1012.4
20260831010016 27 0.0 3.2 0.00 0.00 0.00 28 1012.5
20260831004536 27 113 1.6 6.4 0.00 0.00 0.00 28 1012.5
20260831003016 27 113 1.6 11.3 0.00 0.00 0.00 27 1012.7
20260831001536 28 0.0 6.4 0.00 0.00 0.00 27 1012.7
20260831000016 28 0.0 3.2 0.00 0.00 0.00 27 1012.7
20260830234536 28 135 1.6 6.4 0.00 0.00 0.00 27 1012.7
20260830233016 28 158 1.6 4.8 0.00 0.00 0.00 27 1013.0
20260830231516 28 135 1.6 9.7 0.00 0.00 0.00 27 1013.3
20260830230016 29 0.0 4.8 0.00 0.00 0.00 27 1013.3
20260830224516 29 113 1.6 6.4 0.00 0.00 0.00 27 1013.4
20260830223016 29 225 1.6 6.4 0.00 0.00 0.00 26 1013.5
20260830221516 28 203 3.2 14.5 0.00 0.00 0.00 27 1013.6
20260830220016 29 135 1.6 11.3 0.00 0.00 0.00 26 1013.8
20260830214516 30 203 1.6 8.0 0.00 0.00 0.00 25 1014.0
20260830213016 29 270 1.6 9.7 0.00 0.00 0.00 24 1014.1
20260830211516 29 158 1.6 9.7 0.00 0.00 0.00 26 1014.2
20260830210016 30 135 1.6 9.7 0.00 0.00 0.00 26 1014.3
20260830204516 30 180 1.6 9.7 0.00 0.00 0.00 26 1014.5
20260830203016 29 203 1.6 6.4 0.00 0.00 0.00 28 1014.5
20260830201516 29 203 1.6 8.0 0.00 0.00 0.00 26 1014.4
20260830200016 29 180 3.2 11.3 0.00 0.00 0.00 28 1014.5
20260830194516 29 135 1.6 9.7 0.00 0.00 0.00 29 1014.6
20260830193056 29 225 1.6 6.4 0.00 0.00 0.00 30 1014.6
20260830191516 28 135 1.6 9.7 0.00 0.00 0.00 30 1014.5
20260830190036 29 113 3.2 8.0 0.00 0.00 0.00 28 1014.5
20260830184516 28 225 1.6 9.7 0.00 0.00 0.00 29 1014.6
20260830183015 28 135 1.6 8.0 0.00 0.00 0.00 28 1014.7
20260830181516 28 113 1.6 6.4 0.00 0.00 0.00 29 1014.8
20260830180015 28 113 1.6 9.7 0.00 0.00 0.00 29 1014.9
20260830174515 28 0.0 6.4 0.00 0.00 0.00 30 1015.0
20260830173035 27 113 1.6 6.4 0.00 0.00 0.00 30 1014.7
20260830171515 28 113 1.6 6.4 0.00 0.00 0.00 29 1014.7
20260830170016 27 0.0 3.2 0.00 0.00 0.00 31 1014.8
20260830164536 26 68 1.6 6.4 0.00 0.00 0.00 33 1014.7
20260830163035 26 90 1.6 4.8 0.00 0.00 0.00 33 1014.8
20260830161515 26 68 1.6 6.4 0.00 0.00 0.00 33 1014.7
20260830160015 25 68 3.2 6.4 0.00 0.00 0.00 34 1014.5
20260830154515 25 68 1.6 6.4 0.00 0.00 0.00 34 1014.8
20260830153015 24 0.0 4.8 0.00 0.00 0.00 35 1014.6
20260830151515 23 0.0 6.4 0.00 0.00 0.00 35 1014.6
20260830150015 22 68 1.6 6.4 0.00 0.00 0.00 35 1014.6
20260830144515 21 23 1.6 8.0 0.00 0.00 0.00 37 1014.5
20260830143016 20 0.0 3.2 0.00 0.00 0.00 39 1014.0
20260830141516 19 0.0 3.2 0.00 0.00 0.00 40 1013.9
20260830140015 18 0 1.6 3.2 0.00 0.00 0.00 41 1013.7
20260830134555 18 0 1.6 3.2 0.00 0.00 0.00 41 1013.6
20260830133035 18 0 1.6 4.8 0.00 0.00 0.00 41 1013.7
20260830131515 18 0 1.6 4.8 0.00 0.00 0.00 41 1013.7
20260830130015 18 0 1.6 3.2 0.00 0.00 0.00 41 1013.7